Location: Laterina
(43.5167°N, 11.7167°E)
Time: 14:56:26
(UTC+00:00)

Cosmos 2278 Rocket - Pass Details

Date: 24 September 2020
Orbit: 841 x 845 km, 71.0° (Epoch: 25 October)

Event Time Altitude Azimuth Distance (km) Brightness Sun altitude
Rises 18:00:11 0° 152° (SSE) 3,383 5.0 -10.6°
Reaches altitude 10° 18:03:43 10° 130° (SE) 2,454 4.1 -11.2°
Enters shadow 18:03:49 10° 129° (SE) 2,432 4.1 -11.2°
Exits shadow 18:09:48 10° 64° (ENE) 2,490 4.2 -12.3°
Sets 18:13:13 0° 43° (NE) 3,404 5.0 -12.9°
